SL-12 R/B(AUX MOTOR)

Satellite information

Favourite Embed

Satellite Type and Status

ROCKET BODYIN ORBIT

Key statistics

Satellite SL-12 R/B(AUX MOTOR) at a glance.

Uptime

12832

Days in orbit

Revolutions

≈ 4.3

Per day

Orbit

HEO

HEO

Inclination

65.4

Latest

Satellite identification and parameters

Extended collection of information and parameters for SL-12 R/B(AUX MOTOR).

Object identification

Identified? True

Debris? False

Object name: SL-12 R/B(AUX MOTOR)

International designator: 1990-045F

Object number (NORAD): 20630

Object ID (CCSDS): 20630

Country: COMMONWEALTH OF INDEPENDENT STATES (CIS)

Current information (Y/N): Y

RCS size: MEDIUM

Orbital parameters

Period: 333.293 minutes

Inclination: 65.4073 deg

SMA: 15923.718 km

Apoapsis: 18487.11 km

Periapsis: 604.055 km

RAAN: 6.1449 deg

Eccentricy: 0.5615226

Argument of periapsis: 61.9239 deg

Mean anomaly: 343.3937 deg

Mean motion: 4.32052035 rev/day

Mean motion (dot): -0.00000001 rev/day2

B* drag term: 0.00026575 1/REarth

Two-line elements (TLE)

Creation date: July 5, 2025, 10:26 p.m.

Reference frame: TEME

Reference center: EARTH

Epoch: July 5, 2025, 3:59 p.m. UTC

TLE line 0: 0 SL-12 R/B(AUX MOTOR)

TLE line 1: 1 20630U 90045F 25186.66624034 -.00000001 00000-0 26575-3 0 9992

TLE line 2: 2 20630 65.4073 6.1449 5615226 61.9239 343.3937 4.32052035551039

Live tracking on map

Real-time ground track for satellite SL-12 R/B(AUX MOTOR).

In-orbit conjunctions

There are no conjunctions computed for SL-12 R/B(AUX MOTOR), at the moment. Check back to stay up to date, as we update our databases every day.

Go to all conjunctions

Associated space launch

GLONASS navigation satellites

SL-12 R/B(AUX MOTOR) was lifted into orbit during the mission ‘Proton | Uragan 36 to 38’, on board a Proton space rocket.

The launch took place on May 19, 1990, 8:32 a.m. from 200/40.

For more information about the launch, click the button.

Launch to space Proton | Uragan 36 to 38
Proton | Uragan 36 to 38

Agency: N/A

Status: Launch Successful

Launch date: May 19, 1990, 8:32 a.m. UTC

Rocket: Proton

Launch pad: 200/40

Location: Baikonur Cosmodrome, Republic of Kazakhstan

...

Latest news about this satellite

There are no fresh news available about this satellite. Check back as we update our databases every day.


Newsletter sign-up

Weekly statistics, charts and insights to help you stay on top of the space industry.